Regional Weather Roundup
Issued by NWS

Home | Current Version | Previous Version | Text Only | Print | Product List | Glossary Off
Versions: 1 2 3 4 5 6 7 8 9 10 11 12 13 14 15 16 17 18 19 20 21 22 23 24 25 26 27 28 29 30 31 32 33 34 35 36 37 38 39 40 41 42 43 44 45 46 47 48 49 50

000
ASUS43 KIND 281109
RWRIN

WEATHER ROUNDUP FOR INDIANA
NATIONAL WEATHER SERVICE INDIANAPOLIS IN
700 AM EDT TUE JUL 28 2015

NOTE: "FAIR" INDICATES FEW OR NO CLOUDS BELOW 12,000 FEET WITH NO
SIGNIFICANT WEATHER AND/OR OBSTRUCTIONS TO VISIBILITY.

* - STATION DOES NOT REPORT WEATHER SUCH AS PRECIPITATION OR FOG.

+ - STATION NOT QUALITY CONTROLLED BY THE NATIONAL WEATHER SERVICE.
    USE DATA WITH CAUTION...ESPECIALLY DEWPOINT AND RELATIVE
    HUMIDITY OBSERVATIONS.

INZ001>003-010>013-019-020-281200-
NORTHWEST INDIANA

CITY           SKY/WX    TMP DP  RH WIND       PRES   REMARKS
GARY /AIRPORT/ CLEAR     70  64  83 SE7       30.00R
KNOX *+        PTCLDY    63  63 100 E3        30.00S
LA PORTE +     CLEAR     64  64 100 CALM      30.02R
MICHIGAN CITY+ CLEAR     63  63 100 CALM      30.01S
MONTICELLO +   CLOUDY    71  66  84 CALM      29.99R
RENSSELAER +   CLOUDY    70  68  94 E3        30.00R
VALPARAISO     CLEAR     65  62  90 NE6       30.01S

$$

LMZ046-743>745-281200-
SOUTHERN LAKE MICHIGAN

STATION/POSITION TIME  TEMP    WIND        PRES    WAVE
                       AIR SEA DIR/SP/G            HT
                 (UTC) (F)     (DEG/KT/KT) (MB)    (FT)
BURNS HARBOR     1000   76     130/  8/ 14 1015.9S
MICHIGAN CITY    1000   71     110/  8/ 10   N/A
5NW MICH CITY    1100   72 74  160/  8/ 10   N/A     1

$$

INZ004-005-014>016-021>024-281200-
NORTH CENTRAL INDIANA

CITY           SKY/WX    TMP DP  RH WIND       PRES   REMARKS
ELKHART        CLEAR     64  61  88 CALM      30.03
GOSHEN         CLEAR     62  59  90 CALM      30.03R
LOGANSPORT +   MOCLDY    68  63  83 E3        30.01S
PERU/GRISSOM   CLEAR     72  66  82 E5        30.00R
ROCHESTER +    MOCLDY    70  64  83 CALM      30.02S
SOUTH BEND     CLEAR     67  62  84 CALM      30.03R
WARSAW +       CLEAR     64  61  88 CALM      30.03R

$$

INZ006>009-017-018-025>027-281200-
NORTHEAST INDIANA

CITY           SKY/WX    TMP DP  RH WIND       PRES   REMARKS
ANGOLA *+      CLEAR     61  48  63 CALM      30.04S
AUBURN +       CLEAR     63  59  88 E3        30.05R
FORT WAYNE     PTCLDY    66  62  87 E6        30.03R
HUNTINGTON +   CLOUDY    68  64  86 CALM      30.02R

$$

INZ028-029-035-036-043>045-051>053-281200-
WEST CENTRAL INDIANA

CITY           SKY/WX    TMP DP  RH WIND       PRES   REMARKS
CRAWFORDSVL +    N/A     68  68 100 CALM        N/A  FOG
GREENCASTLE +    N/A     70  68  94 CALM      29.99R FOG
LAFAYETTE      CLEAR     69  66  90 E5        29.98R
TERRE HAUTE    CLOUDY    73  72  96 CALM      29.97R FOG

$$

INZ030>032-037>040-046>048-054>057-064-065-281200-
CENTRAL INDIANA

CITY           SKY/WX    TMP DP  RH WIND       PRES   REMARKS
FISHERS *+     CLEAR     70  70 100 CALM      30.01
FRANKFORT +    CLEAR    N/A N/A N/A CALM      30.01S HAZE
GREENWOOD *+   CLEAR     70  68  94 CALM      30.00
INDIANAPOLIS   MOCLDY    74  70  87 NE6       29.98R FOG
-EAGLE CREEK   CLEAR     73  71  93 NE5       29.99R FOG
KOKOMO *+      CLEAR     68  63  83 SE5       30.01R
MARION +       CLOUDY    70  65  83 E5        30.01S
MT COMFORT *+    N/A     70 N/A N/A NE3       30.01R
SHELBYVILLE    CLEAR     72  69  90 NE5       29.99R FOG
ZIONSVILLE +   CLEAR     71  68  90 CALM      30.01R FOG

$$

INZ033-034-041-042-049-050-058-059-281200-
EAST CENTRAL INDIANA

CITY           SKY/WX    TMP DP  RH WIND       PRES   REMARKS
MUNCIE         FAIR      68  66  93 E5        30.02R

$$

INZ060-061-067>069-081>083-085>088-281200-
SOUTHWEST INDIANA

CITY           SKY/WX    TMP DP  RH WIND       PRES   REMARKS
EVANSVILLE     PTCLDY    74  71  91 CALM      29.97R FOG
HUNTINGBURG *+ CLEAR     73  72  94 CALM      29.97R
WASHINGTON +   PTCLDY    73  69  87 CALM      29.96R FOG

$$

INZ062-063-066-070>080-084-089>092-281200-
SOUTH CENTRAL AND SOUTHEAST INDIANA

CITY           SKY/WX    TMP DP  RH WIND       PRES   REMARKS
BLOOMINGTON    PTCLDY    71  69  93 CALM      29.98R
MADISON *+     PTCLDY    72  70  94 CALM      30.01R
NORTH VERNON +   N/A     72  72 100 CALM      29.99  FOG
SEYMOUR +      MOCLDY    73  72  94 CALM      29.97  FOG

$$




USA.gov is the U.S. government's official web portal to all federal, state and local government web resources and services.